Date String (YYYY-MM-DD hh:mm:ss) UTC,Instrument flags,Ambient pressure (hPa),Sample flow (lpm),Bypass flow (lpm),Sample temperature (°C),Ambient temperature (°C),ASC tube jacket temperature (°C),LED temperature (°C),Box temperature (°C),Sample RH (%),Span deviation,Mass concentration (μg/m³),Mass concentration (μg/m³),Mass concentration (μg/m³)
DateTimeUTC,F1_M11,P_M11,Q1_M11,Q2_M11,T1_M11,T2_M11,T3_M11,T4_M11,T5_M11,U1_M11,ZSPAN_M11,X0_M11,X2_M11,X1_M11
2021-12-08 02:00:00,,0820.0,5.00,0.00,24.0,23.0,00.0,33.1,25.5,09.7,0000.0,0003.30,0000.57,0000.30
2021-12-08 02:01:00,,0819.9,5.00,0.00,24.0,23.0,00.0,33.1,25.6,09.8,0000.0,0003.60,0000.61,0000.31
2021-12-08 02:02:00,,0819.9,5.00,0.00,24.0,23.0,00.0,33.1,25.6,09.8,0000.0,0003.61,0000.60,0000.31
2021-12-08 02:03:00,,0819.8,5.01,0.00,24.0,23.0,00.0,33.1,25.6,09.8,0000.0,0004.81,0000.59,0000.30
2021-12-08 02:04:00,,0819.8,4.99,0.00,24.0,23.0,00.0,33.1,25.7,09.9,0000.0,0005.03,0000.58,0000.30
2021-12-08 02:05:00,,0819.9,5.00,0.00,24.0,23.0,00.0,33.1,25.7,10.0,0000.0,0005.02,0000.59,0000.31
2021-12-08 02:06:00,,0819.9,5.00,0.00,24.0,23.0,00.0,33.0,25.7,10.0,0000.0,0005.53,0000.65,0000.32
2021-12-08 02:07:00,,0820.0,4.99,0.00,23.9,23.0,00.0,33.0,25.6,10.1,0000.0,0005.67,0000.69,0000.32
2021-12-08 02:08:00,,0820.1,5.00,0.00,23.9,22.9,00.0,33.0,25.5,10.1,0000.0,0005.73,0000.73,0000.32
2021-12-08 02:09:00,,0820.2,5.01,0.00,23.9,22.9,00.0,33.0,25.5,10.1,0000.0,0004.70,0000.75,0000.32
2021-12-08 02:10:00,,0820.2,5.00,0.00,23.9,23.0,00.0,33.0,25.5,10.1,0000.0,0004.72,0000.76,0000.33
2021-12-08 02:11:00,,0820.2,5.00,0.00,23.9,23.0,00.0,33.0,25.5,10.1,0000.0,0004.47,0000.78,0000.33
2021-12-08 02:12:00,,0820.2,5.00,0.00,23.8,22.9,00.0,33.0,25.4,10.2,0000.0,0004.17,0000.74,0000.33
2021-12-08 02:13:00,,0820.3,5.00,0.00,23.8,22.8,00.0,33.0,25.4,10.2,0000.0,0004.23,0000.77,0000.33
2021-12-08 02:14:00,,0820.3,5.01,0.00,23.8,22.8,00.0,33.0,25.4,10.2,0000.0,0002.92,0000.78,0000.34
2021-12-08 02:15:00,,0820.4,4.99,0.00,23.8,22.8,00.0,33.0,25.5,10.2,0000.0,0002.41,0000.80,0000.35
2021-12-08 02:16:00,,0820.4,5.01,0.00,23.9,22.9,00.0,32.9,25.5,10.2,0000.0,0003.31,0000.82,0000.34
2021-12-08 02:17:00,,0820.4,5.00,0.00,23.9,22.9,00.0,32.9,25.5,10.3,0000.0,0002.93,0000.76,0000.35
2021-12-08 02:18:00,,0820.4,5.00,0.00,23.9,22.9,00.0,32.9,25.5,10.3,0000.0,0002.80,0000.71,0000.35
2021-12-08 02:19:00,,0820.3,5.02,0.00,23.9,22.9,00.0,32.9,25.5,10.4,0000.0,0002.80,0000.69,0000.35
2021-12-08 02:20:00,,0820.4,4.99,0.00,23.9,22.9,00.0,32.9,25.5,10.4,0000.0,0002.50,0000.69,0000.35
2021-12-08 02:21:00,,0820.4,5.00,0.00,23.9,22.9,00.0,32.9,25.5,10.4,0000.0,0002.43,0000.68,0000.35
2021-12-08 02:22:00,,0820.4,5.01,0.00,23.9,22.9,00.0,32.9,25.5,10.5,0000.0,0002.51,0000.67,0000.35
2021-12-08 02:23:00,,0820.4,4.99,0.00,23.9,22.9,00.0,32.9,25.5,10.5,0000.0,0002.57,0000.70,0000.35
2021-12-08 02:24:00,,0820.5,5.00,0.00,23.9,22.9,00.0,32.9,25.5,10.5,0000.0,0002.49,0000.69,0000.34
2021-12-08 02:25:00,,0820.5,5.01,0.00,23.9,22.9,00.0,32.9,25.5,10.5,0000.0,0002.54,0000.72,0000.34
2021-12-08 02:26:00,,0820.6,5.01,0.00,23.9,23.0,00.0,32.9,25.6,10.5,0000.0,0002.57,0000.72,0000.34
2021-12-08 02:27:00,,0820.6,5.00,0.00,23.9,23.0,00.0,32.9,25.6,10.5,0000.0,0001.86,0000.71,0000.34
2021-12-08 02:28:00,,0820.6,5.00,0.00,23.9,23.1,00.0,32.9,25.6,10.5,0000.0,0001.55,0000.70,0000.33
2021-12-08 02:29:00,,0820.6,4.99,0.00,23.9,23.1,00.0,32.9,25.6,10.6,0000.0,0001.53,0000.71,0000.34
2021-12-08 02:30:00,,0820.6,5.01,0.00,23.9,23.1,00.0,32.9,25.6,10.6,0000.0,0001.37,0000.70,0000.34
2021-12-08 02:31:00,,0820.6,5.00,0.00,23.9,23.1,00.0,32.9,25.6,10.6,0000.0,0001.33,0000.69,0000.34
2021-12-08 02:32:00,,0820.6,5.00,0.00,23.9,23.1,00.0,32.9,25.6,10.6,0000.0,0001.30,0000.68,0000.34
2021-12-08 02:33:00,,0820.6,5.01,0.00,23.9,23.1,00.0,32.9,25.6,10.6,0000.0,0001.18,0000.66,0000.34
2021-12-08 02:34:00,,0820.6,5.00,0.00,23.9,23.1,00.0,32.9,25.6,10.7,0000.0,0001.33,0000.65,0000.34
2021-12-08 02:35:00,,0820.6,5.00,0.00,23.9,23.1,00.0,32.9,25.6,10.7,0000.0,0001.62,0000.65,0000.34
2021-12-08 02:36:00,,0820.7,5.00,0.00,23.9,23.1,00.0,32.9,25.6,10.7,0000.0,0001.59,0000.63,0000.35
2021-12-08 02:37:00,,0820.6,4.99,0.00,23.9,23.0,00.0,32.9,25.6,10.7,0000.0,0001.66,0000.66,0000.35
2021-12-08 02:38:00,,0820.6,5.01,0.00,23.9,23.0,00.0,32.9,25.6,10.7,0000.0,0001.63,0000.67,0000.35
2021-12-08 02:39:00,,0820.6,5.01,0.00,23.9,23.1,00.0,32.9,25.6,10.7,0000.0,0001.61,0000.65,0000.35
2021-12-08 02:40:00,,0820.6,4.98,0.00,23.9,23.1,00.0,32.9,25.6,10.6,0000.0,0001.69,0000.66,0000.35
2021-12-08 02:41:00,,0820.6,5.00,0.00,23.9,23.1,00.0,32.9,25.6,10.6,0000.0,0001.73,0000.68,0000.35
2021-12-08 02:42:00,,0820.6,5.00,0.00,23.9,23.1,00.0,32.9,25.6,10.6,0000.0,0001.70,0000.66,0000.35
2021-12-08 02:43:00,,0820.6,5.00,0.00,23.9,23.1,00.0,32.9,25.6,10.7,0000.0,0001.81,0000.69,0000.36
2021-12-08 02:44:00,,0820.7,4.99,0.00,23.9,23.1,00.0,32.9,25.6,10.7,0000.0,0001.94,0000.74,0000.36
2021-12-08 02:45:00,,0820.7,5.00,0.00,23.9,23.1,00.0,32.9,25.6,10.8,0000.0,0001.79,0000.74,0000.36
2021-12-08 02:46:00,,0820.7,5.00,0.00,23.9,23.1,00.0,32.9,25.6,10.7,0000.0,0001.43,0000.72,0000.35
2021-12-08 02:47:00,,0820.6,5.00,0.00,23.9,23.1,00.0,32.9,25.6,10.7,0000.0,0001.43,0000.71,0000.35
2021-12-08 02:48:00,,0820.7,5.00,0.00,23.9,23.1,00.0,32.9,25.6,10.7,0000.0,0001.30,0000.66,0000.34
2021-12-08 02:49:00,,0820.7,4.98,0.00,23.9,23.1,00.0,32.9,25.6,10.8,0000.0,0001.84,0000.62,0000.34
2021-12-08 02:50:00,,0820.6,5.01,0.00,23.9,23.1,00.0,32.9,25.6,10.8,0000.0,0001.95,0000.63,0000.33
2021-12-08 02:51:00,,0820.6,4.99,0.00,23.9,23.1,00.0,32.9,25.6,10.8,0000.0,0001.95,0000.64,0000.33
2021-12-08 02:52:00,,0820.7,5.01,0.00,23.9,23.1,00.0,32.9,25.6,10.8,0000.0,0001.92,0000.63,0000.33
2021-12-08 02:53:00,,0820.7,5.01,0.00,23.9,23.1,00.0,32.9,25.6,10.8,0000.0,0001.99,0000.61,0000.32
2021-12-08 02:54:00,,0820.7,4.98,0.00,23.9,23.0,00.0,32.9,25.6,10.8,0000.0,0001.85,0000.58,0000.32
2021-12-08 02:55:00,,0820.8,5.00,0.00,23.9,23.0,00.0,32.9,25.6,10.8,0000.0,0001.87,0000.54,0000.32
2021-12-08 02:56:00,,0820.7,4.99,0.00,23.9,23.0,00.0,32.9,25.6,10.9,0000.0,0001.87,0000.55,0000.32
2021-12-08 02:57:00,,0820.7,5.01,0.00,23.8,23.0,00.0,32.9,25.5,10.9,0000.0,0001.84,0000.54,0000.32
2021-12-08 02:58:00,,0820.7,4.98,0.00,23.8,23.0,00.0,32.9,25.5,10.9,0000.0,0001.80,0000.52,0000.32
2021-12-08 02:59:00,,0820.7,5.00,0.00,23.8,23.0,00.0,32.9,25.5,10.9,0000.0,0001.96,0000.55,0000.32
